When you browse on this site, cookies collect data to enhance your experience and personalize the content and advertising you see.
Visit our Privacy Policy to learn more. By continuing to use the site, you agree to this use of cookies and data.
  • Em Portugal
  • Lista de países
  • Para 7 dias
  • Temperatura da água
  • Mapas de satélite
  • Mapa do tempo
  • Widgets de tempo
  • user-avatar
    Iniciar Sessão

    Previsão horária em Bolotniki

    Hoje, 21 Julho, Domingo

    Tempo Temperatura Precipitação Vento Pressão Humidade
    00:00 +15°C° 0 mm 1 m/s 750 mmHg 81%
    01:00 +14°C° 0 mm 1 m/s 751 mmHg 82%
    02:00 +14°C° 0 mm 1 m/s 751 mmHg 81%
    03:00 +14°C° 0 mm 1 m/s 751 mmHg 82%
    04:00 +14°C° 0 mm 1 m/s 751 mmHg 83%
    05:00 +14°C° 0 mm 1 m/s 751 mmHg 84%
    06:00 +15°C° 0 mm 0 m/s 751 mmHg 78%
    07:00 +17°C° 0 mm 0 m/s 751 mmHg 72%
    08:00 +20°C° 0 mm 0 m/s 751 mmHg 66%
    09:00 +21°C° 0 mm 0 m/s 751 mmHg 61%
    10:00 +23°C° 0 mm 0 m/s 751 mmHg 55%
    11:00 +26°C° 0 mm 1 m/s 751 mmHg 50%
    12:00 +27°C° 0 mm 1 m/s 751 mmHg 48%
    13:00 +27°C° 0 mm 1 m/s 751 mmHg 46%
    14:00 +27°C° 0 mm 1 m/s 751 mmHg 44%
    15:00 +27°C° 0 mm 1 m/s 751 mmHg 47%
    16:00 +27°C° 0 mm 1 m/s 751 mmHg 49%
    17:00 +26°C° 0 mm 1 m/s 751 mmHg 52%
    18:00 +24°C° 0 mm 1 m/s 750 mmHg 60%
    19:00 +22°C° 0 mm 1 m/s 750 mmHg 67%
    20:00 +20°C° 0 mm 1 m/s 750 mmHg 75%
    21:00 +19°C° 0 mm 1 m/s 750 mmHg 77%
    22:00 +19°C° 0 mm 1 m/s 750 mmHg 78%
    23:00 +18°C° 0 mm 1 m/s 750 mmHg 80%

    Amanhã, 22 Julho, Segunda-feira

    Tempo Temperatura Precipitação Vento Pressão Humidade
    00:00 +16°C° 0 mm 1 m/s 750 mmHg 81%
    01:00 +16°C° 0 mm 1 m/s 750 mmHg 81%
    02:00 +16°C° 0 mm 2 m/s 750 mmHg 81%
    03:00 +16°C° 0 mm 2 m/s 749 mmHg 82%
    04:00 +16°C° 0 mm 2 m/s 749 mmHg 82%
    05:00 +16°C° 0 mm 2 m/s 749 mmHg 83%
    06:00 +17°C° 0.3 mm 2 m/s 749 mmHg 86%
    07:00 +17°C° 0.3 mm 2 m/s 749 mmHg 88%
    08:00 +18°C° 0.3 mm 1 m/s 749 mmHg 91%
    09:00 +19°C° 0.3 mm 1 m/s 749 mmHg 92%
    10:00 +19°C° 0.3 mm 1 m/s 749 mmHg 94%
    11:00 +19°C° 0.3 mm 1 m/s 749 mmHg 95%
    12:00 +19°C° 1.1 mm 1 m/s 748 mmHg 96%
    13:00 +19°C° 1.1 mm 1 m/s 748 mmHg 96%
    14:00 +19°C° 1.1 mm 1 m/s 748 mmHg 97%
    15:00 +19°C° 3.8 mm 1 m/s 748 mmHg 97%
    16:00 +18°C° 3.8 mm 1 m/s 748 mmHg 97%
    17:00 +18°C° 3.8 mm 1 m/s 748 mmHg 97%
    18:00 +18°C° 0.8 mm 1 m/s 748 mmHg 97%
    19:00 +18°C° 0.8 mm 1 m/s 747 mmHg 98%
    20:00 +16°C° 0.8 mm 1 m/s 747 mmHg 98%
    21:00 +16°C° 0 mm 1 m/s 747 mmHg 98%
    22:00 +16°C° 0 mm 1 m/s 747 mmHg 98%
    23:00 +15°C° 0 mm 1 m/s 747 mmHg 98%

    Depois de amanhã, 23 Julho, Terça-feira

    Tempo Temperatura Precipitação Vento Pressão Humidade
    00:00 +15°C° 0 mm 1 m/s 747 mmHg 98%
    01:00 +15°C° 0 mm 1 m/s 747 mmHg 98%
    02:00 +14°C° 0 mm 1 m/s 747 mmHg 98%
    03:00 +15°C° 0.1 mm 1 m/s 747 mmHg 98%
    04:00 +15°C° 0.1 mm 1 m/s 747 mmHg 98%
    05:00 +15°C° 0.1 mm 1 m/s 747 mmHg 98%
    06:00 +16°C° 0 mm 2 m/s 747 mmHg 97%
    07:00 +16°C° 0 mm 2 m/s 747 mmHg 96%
    08:00 +16°C° 0 mm 2 m/s 747 mmHg 95%
    09:00 +17°C° 0 mm 2 m/s 748 mmHg 93%
    10:00 +18°C° 0 mm 1 m/s 748 mmHg 91%
    11:00 +19°C° 0 mm 1 m/s 748 mmHg 89%
    12:00 +20°C° 0.2 mm 1 m/s 748 mmHg 83%
    13:00 +21°C° 0.2 mm 2 m/s 748 mmHg 77%
    14:00 +23°C° 0.2 mm 2 m/s 748 mmHg 71%
    15:00 +24°C° 0.2 mm 2 m/s 748 mmHg 69%
    16:00 +24°C° 0.2 mm 2 m/s 748 mmHg 67%
    17:00 +24°C° 0.2 mm 2 m/s 748 mmHg 65%
    18:00 +23°C° 0.1 mm 2 m/s 748 mmHg 72%
    19:00 +20°C° 0.1 mm 2 m/s 748 mmHg 79%
    20:00 +20°C° 0.1 mm 1 m/s 748 mmHg 85%
    21:00 +19°C° 0 mm 1 m/s 748 mmHg 87%
    22:00 +18°C° 0 mm 1 m/s 748 mmHg 88%
    23:00 +16°C° 0 mm 1 m/s 749 mmHg 90%

    24 Julho, Quarta-feira

    Tempo Temperatura Precipitação Vento Pressão Humidade
    00:00 +16°C° 0 mm 1 m/s 749 mmHg 91%
    01:00 +15°C° 0 mm 2 m/s 749 mmHg 91%
    02:00 +15°C° 0 mm 2 m/s 749 mmHg 92%
    03:00 +15°C° 0 mm 2 m/s 749 mmHg 92%
    04:00 +15°C° 0 mm 1 m/s 749 mmHg 92%
    05:00 +14°C° 0 mm 1 m/s 749 mmHg 92%
    06:00 +16°C° 0 mm 1 m/s 749 mmHg 86%
    07:00 +19°C° 0 mm 1 m/s 749 mmHg 79%
    08:00 +21°C° 0 mm 1 m/s 750 mmHg 73%
    09:00 +23°C° 0 mm 2 m/s 750 mmHg 66%
    10:00 +24°C° 0 mm 2 m/s 750 mmHg 58%
    11:00 +26°C° 0 mm 2 m/s 750 mmHg 51%
    12:00 +26°C° 0 mm 2 m/s 750 mmHg 49%
    13:00 +27°C° 0 mm 2 m/s 750 mmHg 46%
    14:00 +27°C° 0 mm 2 m/s 750 mmHg 44%
    15:00 +27°C° 0 mm 2 m/s 750 mmHg 47%
    16:00 +27°C° 0 mm 2 m/s 750 mmHg 49%
    17:00 +27°C° 0 mm 2 m/s 750 mmHg 51%
    18:00 +25°C° 0 mm 1 m/s 751 mmHg 59%
    19:00 +23°C° 0 mm 1 m/s 751 mmHg 67%
    20:00 +21°C° 0 mm 1 m/s 751 mmHg 75%
    21:00 +20°C° 0 mm 1 m/s 751 mmHg 76%
    22:00 +17°C° 0 mm 0 m/s 751 mmHg 77%
    23:00 +16°C° 0 mm 0 m/s 752 mmHg 78%

    25 Julho, Quinta-feira

    Tempo Temperatura Precipitação Vento Pressão Humidade
    00:00 +16°C° 0 mm 0 m/s 752 mmHg 79%
    01:00 +15°C° 0 mm 0 m/s 752 mmHg 81%
    02:00 +15°C° 0 mm 0 m/s 752 mmHg 82%
    03:00 +15°C° 0 mm 0 m/s 752 mmHg 83%
    04:00 +15°C° 0 mm 0 m/s 752 mmHg 83%
    05:00 +15°C° 0 mm 0 m/s 753 mmHg 84%
    06:00 +17°C° 0 mm 0 m/s 753 mmHg 78%
    07:00 +21°C° 0 mm 1 m/s 753 mmHg 73%
    08:00 +23°C° 0 mm 1 m/s 753 mmHg 67%
    09:00 +25°C° 0 mm 1 m/s 753 mmHg 62%
    10:00 +26°C° 0 mm 1 m/s 753 mmHg 58%
    11:00 +27°C° 0 mm 1 m/s 754 mmHg 53%
    12:00 +27°C° 0 mm 1 m/s 753 mmHg 53%
    13:00 +27°C° 0 mm 1 m/s 753 mmHg 53%
    14:00 +27°C° 0 mm 1 m/s 753 mmHg 53%
    15:00 +27°C° 0 mm 1 m/s 753 mmHg 55%
    16:00 +27°C° 0 mm 2 m/s 753 mmHg 57%
    17:00 +27°C° 0 mm 2 m/s 753 mmHg 58%
    18:00 +25°C° 0 mm 2 m/s 753 mmHg 65%
    19:00 +24°C° 0 mm 2 m/s 753 mmHg 71%
    20:00 +21°C° 0 mm 2 m/s 753 mmHg 78%
    21:00 +20°C° 0 mm 2 m/s 753 mmHg 81%
    22:00 +19°C° 0 mm 2 m/s 753 mmHg 85%
    23:00 +19°C° 0 mm 1 m/s 753 mmHg 88%

    26 Julho, Sexta-feira

    Tempo Temperatura Precipitação Vento Pressão Humidade
    00:00 +19°C° 0 mm 1 m/s 753 mmHg 89%
    01:00 +18°C° 0 mm 1 m/s 753 mmHg 91%
    02:00 +18°C° 0 mm 1 m/s 753 mmHg 93%
    03:00 +18°C° 0 mm 1 m/s 753 mmHg 93%
    04:00 +18°C° 0 mm 1 m/s 753 mmHg 93%
    05:00 +17°C° 0 mm 2 m/s 753 mmHg 94%
    06:00 +19°C° 0 mm 2 m/s 753 mmHg 87%
    07:00 +20°C° 0 mm 2 m/s 753 mmHg 81%
    08:00 +23°C° 0 mm 2 m/s 754 mmHg 75%
    09:00 +24°C° 0 mm 2 m/s 753 mmHg 69%
    10:00 +26°C° 0 mm 3 m/s 753 mmHg 63%
    11:00 +27°C° 0 mm 3 m/s 753 mmHg 57%
    12:00 +28°C° 0 mm 3 m/s 753 mmHg 55%
    13:00 +28°C° 0 mm 3 m/s 753 mmHg 54%
    14:00 +29°C° 0 mm 3 m/s 753 mmHg 52%
    15:00 +28°C° 0 mm 3 m/s 752 mmHg 54%
    16:00 +28°C° 0 mm 3 m/s 752 mmHg 55%
    17:00 +28°C° 0 mm 2 m/s 752 mmHg 57%
    18:00 +26°C° 0 mm 2 m/s 752 mmHg 64%
    19:00 +25°C° 0 mm 2 m/s 752 mmHg 71%
    20:00 +23°C° 0 mm 1 m/s 752 mmHg 79%
    21:00 +22°C° 0 mm 1 m/s 752 mmHg 81%
    22:00 +21°C° 0 mm 1 m/s 752 mmHg 84%
    23:00 +20°C° 0 mm 1 m/s 752 mmHg 86%
    Mostrar mais